Location: アルンシュタイン
(50.0000°N, 10.0000°E)
Time: 16:55:36
(UTC+02:00)

Vanguard 1 - Pass Details

Date: 20 September 2024
Orbit: 649 x 3825 km, 34.3° (Epoch: 02 October)

Event Time Altitude Azimuth Distance (km) Brightness Sun altitude
Rises 14:33:58 0° 251° (WSW) 6,288 14.7 37.9°
Reaches altitude 10° 14:39:25 10° 242° (WSW) 4,696 14.4 37.5°
Maximum altitude 14:48:50 29° 190° (S) 2,439 13.8 36.7°
Drops below altitude 10° 14:54:48 10° 133° (SE) 2,890 12.7 36.2°
Sets 14:57:18 0° 120° (ESE) 3,572 12.9 36.0°
